Location: *
(24.1434°N, 56.8729°E)
Time: 09:03:17
(UTC+00:00)

IRIDIUM 114 - Pass Details

Date: 09 April 2020
Orbit: 776 x 779 km, 86.4° (Epoch: 29 May)

Event Time Altitude Azimuth Distance (km) Brightness Sun altitude
Rises 15:32:48 0° 360° (N) 3,259 7.8 -14.4°
Reaches altitude 10° 15:35:09 10° 1° (N) 2,329 7.0 -14.9°
Maximum altitude 15:40:22 84° 89° (E) 785 4.2 -16.1°
Drops below altitude 10° 15:45:34 10° 178° (S) 2,318 6.6 -17.2°
Sets 15:47:54 0° 179° (S) 3,242 7.4 -17.7°
